Previsão horária em Barra

Hoje, 24 Outubro, Sábado

Tempo Temperatura Precipitação Vento Pressão Humidade
00:00 +26°C° 0 mm 2 m/s 723 mmHg 62%
01:00 +26°C° 0 mm 3 m/s 723 mmHg 64%
02:00 +26°C° 0 mm 3 m/s 723 mmHg 67%
03:00 +26°C° 0 mm 4 m/s 723 mmHg 69%
04:00 +25°C° 0 mm 4 m/s 724 mmHg 69%
05:00 +25°C° 0 mm 4 m/s 724 mmHg 70%
06:00 +25°C° 0 mm 4 m/s 725 mmHg 70%
07:00 +27°C° 0 mm 4 m/s 725 mmHg 61%
08:00 +30°C° 0 mm 4 m/s 726 mmHg 52%
09:00 +33°C° 0 mm 4 m/s 726 mmHg 43%
10:00 +34°C° 0 mm 4 m/s 726 mmHg 39%
11:00 +36°C° 0 mm 4 m/s 725 mmHg 35%
12:00 +37°C° 0 mm 4 m/s 724 mmHg 32%
13:00 +37°C° 0 mm 3 m/s 723 mmHg 29%
14:00 +38°C° 0 mm 3 m/s 722 mmHg 27%
15:00 +38°C° 0 mm 3 m/s 722 mmHg 25%
16:00 +37°C° 0 mm 2 m/s 722 mmHg 28%
17:00 +35°C° 0 mm 2 m/s 722 mmHg 31%
18:00 +32°C° 0 mm 2 m/s 722 mmHg 34%
19:00 +31°C° 0 mm 2 m/s 722 mmHg 37%
20:00 +31°C° 0 mm 2 m/s 722 mmHg 40%
21:00 +30°C° 0 mm 2 m/s 723 mmHg 44%
22:00 +30°C° 0 mm 2 m/s 723 mmHg 45%
23:00 +29°C° 0 mm 3 m/s 723 mmHg 46%

Amanhã, 25 Outubro, Domingo

Tempo Temperatura Precipitação Vento Pressão Humidade
00:00 +29°C° 0 mm 3 m/s 723 mmHg 47%
01:00 +29°C° 0 mm 3 m/s 723 mmHg 50%
02:00 +29°C° 0 mm 4 m/s 722 mmHg 53%
03:00 +28°C° 0 mm 4 m/s 722 mmHg 56%
04:00 +28°C° 0 mm 4 m/s 722 mmHg 60%
05:00 +27°C° 0 mm 3 m/s 723 mmHg 64%
06:00 +26°C° 0 mm 3 m/s 723 mmHg 68%
07:00 +28°C° 0 mm 3 m/s 724 mmHg 61%
08:00 +30°C° 0 mm 4 m/s 724 mmHg 53%
09:00 +33°C° 0 mm 5 m/s 725 mmHg 46%
10:00 +34°C° 0 mm 4 m/s 724 mmHg 42%
11:00 +35°C° 0 mm 4 m/s 723 mmHg 39%
12:00 +36°C° 0 mm 4 m/s 723 mmHg 36%
13:00 +37°C° 0 mm 4 m/s 722 mmHg 35%
14:00 +37°C° 0 mm 4 m/s 721 mmHg 33%
15:00 +37°C° 0 mm 3 m/s 721 mmHg 32%
16:00 +36°C° 0 mm 3 m/s 721 mmHg 36%
17:00 +34°C° 0 mm 2 m/s 721 mmHg 39%
18:00 +32°C° 0 mm 1 m/s 721 mmHg 42%
19:00 +31°C° 0.4 mm 1 m/s 722 mmHg 49%
20:00 +29°C° 0.4 mm 1 m/s 722 mmHg 55%
21:00 +28°C° 0.4 mm 1 m/s 722 mmHg 61%
22:00 +27°C° 0.7 mm 1 m/s 722 mmHg 66%
23:00 +27°C° 0.7 mm 1 m/s 722 mmHg 70%

Depois de amanhã, 26 Outubro, Segunda-feira

Tempo Temperatura Precipitação Vento Pressão Humidade
00:00 +26°C° 0.7 mm 2 m/s 722 mmHg 74%
01:00 +26°C° 0.5 mm 2 m/s 722 mmHg 75%
02:00 +26°C° 0.5 mm 2 m/s 722 mmHg 76%
03:00 +26°C° 0.5 mm 2 m/s 722 mmHg 77%
04:00 +26°C° 0 mm 2 m/s 722 mmHg 77%
05:00 +26°C° 0 mm 2 m/s 722 mmHg 78%
06:00 +26°C° 0 mm 2 m/s 723 mmHg 78%
07:00 +26°C° 0 mm 1 m/s 723 mmHg 76%
08:00 +27°C° 0 mm 1 m/s 724 mmHg 73%
09:00 +27°C° 0 mm 1 m/s 724 mmHg 70%
10:00 +29°C° 0 mm 1 m/s 724 mmHg 62%
11:00 +31°C° 0 mm 1 m/s 723 mmHg 55%
12:00 +34°C° 0 mm 2 m/s 723 mmHg 47%
13:00 +35°C° 0.1 mm 2 m/s 722 mmHg 44%
14:00 +36°C° 0.1 mm 2 m/s 722 mmHg 41%
15:00 +36°C° 0.1 mm 2 m/s 721 mmHg 38%
16:00 +35°C° 0.2 mm 2 m/s 721 mmHg 42%
17:00 +32°C° 0.2 mm 2 m/s 721 mmHg 47%
18:00 +31°C° 0.2 mm 2 m/s 721 mmHg 51%
19:00 +30°C° 1.3 mm 2 m/s 721 mmHg 59%
20:00 +28°C° 1.3 mm 2 m/s 722 mmHg 66%
21:00 +27°C° 1.3 mm 2 m/s 723 mmHg 74%
22:00 +27°C° 1 mm 2 m/s 723 mmHg 76%
23:00 +27°C° 1 mm 2 m/s 723 mmHg 79%

, 27 Outubro, Terça-feira

Tempo Temperatura Precipitação Vento Pressão Humidade
00:00 +26°C° 1 mm 2 m/s 723 mmHg 81%
01:00 +26°C° 0 mm 2 m/s 722 mmHg 82%
02:00 +26°C° 0 mm 2 m/s 722 mmHg 82%
03:00 +26°C° 0 mm 1 m/s 722 mmHg 83%
04:00 +26°C° 0.3 mm 2 m/s 722 mmHg 83%
05:00 +26°C° 0.3 mm 2 m/s 722 mmHg 84%
06:00 +25°C° 0.3 mm 2 m/s 723 mmHg 84%
07:00 +25°C° 1 mm 2 m/s 723 mmHg 85%
08:00 +25°C° 1 mm 2 m/s 724 mmHg 87%
09:00 +25°C° 1 mm 2 m/s 724 mmHg 88%
10:00 +26°C° 0.1 mm 2 m/s 724 mmHg 80%
11:00 +27°C° 0.1 mm 2 m/s 723 mmHg 72%
12:00 +29°C° 0.1 mm 2 m/s 723 mmHg 63%
13:00 +30°C° 0 mm 2 m/s 722 mmHg 60%
14:00 +31°C° 0 mm 2 m/s 721 mmHg 56%
15:00 +31°C° 0 mm 3 m/s 720 mmHg 52%
16:00 +30°C° 0 mm 2 m/s 720 mmHg 55%
17:00 +29°C° 0 mm 1 m/s 720 mmHg 58%
18:00 +29°C° 0 mm 1 m/s 720 mmHg 61%
19:00 +28°C° 0 mm 1 m/s 721 mmHg 63%
20:00 +28°C° 0 mm 1 m/s 721 mmHg 65%
21:00 +27°C° 0 mm 1 m/s 722 mmHg 67%
22:00 +25°C° 0 mm 0 m/s 721 mmHg 67%
23:00 +25°C° 0 mm 0 m/s 721 mmHg 68%

27 Outubro, Terça-feira

Tempo Temperatura Precipitação Vento Pressão Humidade
00:00 +26°C° 1 mm 2 m/s 723 mmHg 81%
01:00 +26°C° 0 mm 2 m/s 722 mmHg 82%
02:00 +26°C° 0 mm 2 m/s 722 mmHg 82%
03:00 +26°C° 0 mm 1 m/s 722 mmHg 83%
04:00 +26°C° 0.3 mm 2 m/s 722 mmHg 83%
05:00 +26°C° 0.3 mm 2 m/s 722 mmHg 84%
06:00 +25°C° 0.3 mm 2 m/s 723 mmHg 84%
07:00 +25°C° 1 mm 2 m/s 723 mmHg 85%
08:00 +25°C° 1 mm 2 m/s 724 mmHg 87%
09:00 +25°C° 1 mm 2 m/s 724 mmHg 88%
10:00 +26°C° 0.1 mm 2 m/s 724 mmHg 80%
11:00 +27°C° 0.1 mm 2 m/s 723 mmHg 72%
12:00 +29°C° 0.1 mm 2 m/s 723 mmHg 63%
13:00 +30°C° 0 mm 2 m/s 722 mmHg 60%
14:00 +31°C° 0 mm 2 m/s 721 mmHg 56%
15:00 +31°C° 0 mm 3 m/s 720 mmHg 52%
16:00 +30°C° 0 mm 2 m/s 720 mmHg 55%
17:00 +29°C° 0 mm 1 m/s 720 mmHg 58%
18:00 +29°C° 0 mm 1 m/s 720 mmHg 61%
19:00 +28°C° 0 mm 1 m/s 721 mmHg 63%
20:00 +28°C° 0 mm 1 m/s 721 mmHg 65%
21:00 +27°C° 0 mm 1 m/s 722 mmHg 67%
22:00 +25°C° 0 mm 0 m/s 721 mmHg 67%
23:00 +25°C° 0 mm 0 m/s 721 mmHg 68%

28 Outubro, Quarta-feira

Tempo Temperatura Precipitação Vento Pressão Humidade
00:00 +25°C° 0 mm 0 m/s 721 mmHg 68%
01:00 +24°C° 0 mm 0 m/s 721 mmHg 69%
02:00 +24°C° 0 mm 0 m/s 721 mmHg 70%
03:00 +24°C° 0 mm 0 m/s 721 mmHg 70%
04:00 +26°C° 0.2 mm 1 m/s 721 mmHg 70%
05:00 +26°C° 0.2 mm 1 m/s 721 mmHg 71%
06:00 +26°C° 0.2 mm 1 m/s 722 mmHg 71%
07:00 +27°C° 0.3 mm 1 m/s 722 mmHg 68%
08:00 +28°C° 0.3 mm 1 m/s 723 mmHg 65%
09:00 +29°C° 0.3 mm 1 m/s 723 mmHg 62%
10:00 +31°C° 0 mm 2 m/s 723 mmHg 55%
11:00 +34°C° 0 mm 2 m/s 722 mmHg 48%
12:00 +36°C° 0 mm 3 m/s 722 mmHg 41%
13:00 +36°C° 0.1 mm 3 m/s 721 mmHg 44%
14:00 +35°C° 0.1 mm 3 m/s 721 mmHg 46%
15:00 +34°C° 0.1 mm 3 m/s 720 mmHg 49%
16:00 +33°C° 0.1 mm 3 m/s 720 mmHg 52%
17:00 +31°C° 0.1 mm 3 m/s 720 mmHg 55%
18:00 +30°C° 0.1 mm 2 m/s 720 mmHg 58%
19:00 +30°C° 0.4 mm 2 m/s 721 mmHg 63%
20:00 +29°C° 0.4 mm 3 m/s 721 mmHg 68%
21:00 +28°C° 0.4 mm 3 m/s 722 mmHg 73%
22:00 +28°C° 0.2 mm 3 m/s 722 mmHg 74%
23:00 +27°C° 0.2 mm 3 m/s 722 mmHg 76%

29 Outubro, Quinta-feira

Tempo Temperatura Precipitação Vento Pressão Humidade
00:00 +27°C° 0.2 mm 3 m/s 722 mmHg 78%
01:00 +27°C° 0.1 mm 2 m/s 722 mmHg 78%
02:00 +26°C° 0.1 mm 2 m/s 721 mmHg 78%
03:00 +26°C° 0.1 mm 1 m/s 721 mmHg 78%
04:00 +26°C° 0.2 mm 2 m/s 722 mmHg 78%
05:00 +27°C° 0.2 mm 2 m/s 722 mmHg 77%
06:00 +27°C° 0.2 mm 3 m/s 723 mmHg 76%
07:00 +27°C° 0 mm 3 m/s 723 mmHg 72%
08:00 +28°C° 0 mm 3 m/s 724 mmHg 68%
09:00 +29°C° 0 mm 4 m/s 724 mmHg 64%
10:00 +30°C° 0 mm 4 m/s 724 mmHg 58%
11:00 +33°C° 0 mm 4 m/s 723 mmHg 53%
12:00 +34°C° 0 mm 5 m/s 723 mmHg 48%
13:00 +35°C° 0 mm 4 m/s 723 mmHg 46%
14:00 +35°C° 0 mm 4 m/s 722 mmHg 43%
15:00 +36°C° 0 mm 4 m/s 722 mmHg 41%
16:00 +34°C° 0.1 mm 3 m/s 722 mmHg 46%
17:00 +32°C° 0.1 mm 2 m/s 722 mmHg 50%
18:00 +30°C° 0.1 mm 1 m/s 722 mmHg 55%
19:00 +30°C° 0.2 mm 1 m/s 722 mmHg 59%
20:00 +29°C° 0.2 mm 1 m/s 723 mmHg 63%
21:00 +28°C° 0.2 mm 1 m/s 723 mmHg 68%
22:00 +28°C° 0 mm 2 m/s 723 mmHg 70%
23:00 +27°C° 0 mm 2 m/s 723 mmHg 72%
Mostrar mais